Regional Weather Roundup
Issued by NWS

Home | Current Version | Previous Version | Graphics & Text | Print | Product List | Glossary On
Versions: 1 2 3 4 5 6 7 8 9 10 11 12 13 14 15 16 17 18 19 20 21 22 23 24 25 26 27 28 29 30 31 32 33 34 35 36 37 38 39 40 41 42 43 44 45 46 47 48 49 50
627
ASUS44 KLIX 310010
RWRLA
LOUISIANA WEATHER ROUNDUP
NATIONAL WEATHER SERVICE NEW ORLEANS LA
700 PM CDT WED JUL 30 2014

NOTE: "FAIR" INDICATES FEW OR NO CLOUDS BELOW 12,000 FEET WITH NO
      SIGNIFICANT WEATHER AND/OR OBSTRUCTIONS TO VISIBILITY.
      SKY/WX - SKY CONDITION AND SIGNIFICANT WEATHER.
      TMP - AIR TEMPERATURE.    DP   - DEWPOINT TEMPERATURE.
      RH  - RELATIVE HUMIDITY.  PRES - PRESSURE.
      HX  - HEAT INDEX.         WCI  - WIND CHILL INDEX.

*  THESE STATIONS ARE NOT NWS OR FAA STATIONS AND ARE NOT UNDER
   NWS QUALITY CONTROL.

LAZ040-048-061>063-065-066-069-310100-
SOUTHEAST LOUISIANA

CITY           SKY/WX    TMP DP  RH WIND       PRES   REMARKS
N.O. AUDUBON     N/A     87  62  42 MISG        N/A
6HR MIN TEMP:  87; 6HR MAX TEMP:  91;

N.O. INTL ARPT MOSUNNY   84  61  45 N7        30.00R
6HR MIN TEMP:  84; 6HR MAX TEMP:  87;

N.O. LAKEFRONT SUNNY     84  63  49 NW7       30.00S
6HR MIN TEMP:  82; 6HR MAX TEMP:  85;

N.O. DOWNTOWN* FAIR      84  57  39 N6        30.00S
6HR MIN TEMP:  84; 6HR MAX TEMP:  88;

SLIDELL        SUNNY     83  60  45 N6        30.00R
6HR MIN TEMP:  83; 6HR MAX TEMP:  87;

BATON ROUGE    SUNNY     85  62  46 N6        30.01R
6HR MIN TEMP:  84; 6HR MAX TEMP:  88;

BOOTHVILLE     CLEAR     82  64  54 E6        30.00S
6HR MIN TEMP:  82; 6HR MAX TEMP:  84;

BELLE CHASSE   PTSUNNY   84  60  44 NE5       29.99S
6HR MIN TEMP:  84; 6HR MAX TEMP:  89;

BOGALUSA*      FAIR      83  62  48 N3        30.02S
6HR MIN TEMP:  83; 6HR MAX TEMP:  87;

GALLIANO*      NOT AVBL
NEW ROADS*     FAIR      82  65  56 N7        30.01S
6HR MIN TEMP:  82; 6HR MAX TEMP:  86;

GONZALES*      FAIR      84  64  51 CALM      29.99S
6HR MIN TEMP:  83; 6HR MAX TEMP:  87;

HAMMOND*       SUNNY     84  57  39 CALM      30.02S
HOUMA*         MOSUNNY   91  63  38 N5        29.99
PORT FOURCHON* MOCLDY    84  70  61 E7        30.01R

$$

LAZ041-044-053-054-310100-
SOUTHWEST LOUISIANA

CITY           SKY/WX    TMP DP  RH WIND       PRES   REMARKS
LAKE CHARLES   SUNNY     87  67  51 E7        29.98S
6HR MIN TEMP:  86; 6HR MAX TEMP:  91;

LAFAYETTE      SUNNY     85  64  49 NE7       30.00R
6HR MIN TEMP:  85; 6HR MAX TEMP:  90;

PATTERSON      SUNNY     84  68  58 N7        30.04R
6HR MIN TEMP:  84; 6HR MAX TEMP:  88;

SALT POINT       N/A     89  69  51 N3        29.98R
6HR MIN TEMP:  87; 6HR MAX TEMP:  90;

NEW IBERIA     SUNNY     86  63  45 N10       30.00R
6HR MIN TEMP:  86; 6HR MAX TEMP:  91;

CHENAULT AIRPK SUNNY     88  64  45 E5        29.99S

$$

LAZ027-028-310100-
CENTRAL LOUISIANA

CITY           SKY/WX    TMP DP  RH WIND       PRES   REMARKS
FORT POLK      MOSUNNY   86  62  44 NE7       30.00S
6HR MIN TEMP:  85; 6HR MAX TEMP:  89;

ALEXANDRIA INT MOSUNNY   86  64  47 NE3       29.99F
6HR MIN TEMP:  86; 6HR MAX TEMP:  91;

ALEXANDRIA     MOSUNNY   86  67  52 E6        30.01F
6HR MIN TEMP:  85; 6HR MAX TEMP:  90;


$$

LAZ001-002-310100-
NORTHWEST LOUISIANA

CITY           SKY/WX    TMP DP  RH WIND       PRES   REMARKS
SHREVEPORT     PTSUNNY   83  63  50 E9        30.00F
6HR MIN TEMP:  83; 6HR MAX TEMP:  89;

BARKSDALE AFB  PTSUNNY   80  66  61 E7        30.01F
6HR MIN TEMP:  80; 6HR MAX TEMP:  86;

DTN SHREVEPORT PTSUNNY   81  66  60 NE6       30.01F
6HR MIN TEMP:  81; 6HR MAX TEMP:  87;


$$

LAZ014-016-310100-
NORTHEAST LOUISIANA

CITY           SKY/WX    TMP DP  RH WIND       PRES   REMARKS
MONROE         CLOUDY    80  63  55 NE9       30.04F
6HR MIN TEMP:  80; 6HR MAX TEMP:  89; 6HR PCP: TRACE;

TALLULAH       MOSUNNY   80  62  54 N9        30.04S
6HR MIN TEMP:  80; 6HR MAX TEMP:  87;


$$




USA.gov is the U.S. government's official web portal to all federal, state and local government web resources and services.